Home > Weather > Lihue > Past weeks

Flag for U.S.A. Weather for the Past 2 Weeks in Lihue, Hawaii, U.S.A.

Now
80 °F

Sunny.


Feels Like: 82 °F
Forecast: 64 / 72 °F
Wind: 13 mph from Northeast

Location: Lihue Airport

Current Time: Feb 6, 2016 at 4:05:30 PM

Latest Report: Feb 6, 2016 at 1:53 PM


Visibility: 10 mi

Pressure: 29.92 "Hg

Humidity: 62%

Dew point: 66 °F

Location of LihueLocation

Historic Weather in Lihue — Graph

°F

Lihue Temperature Yesterday

Maximum temperature yesterday: 83 °F (at 3:53 PM)
Minimum temperature yesterday: 66 °F (at 7:18 AM)
Average temperature yesterday: 74 °F

High & Low Weather Summary for the Past Weeks

 TemperatureHumidityPressure
High85 °F (Jan 26, 12:53 PM)94% (Jan 25, 1:33 AM)30.15 "Hg (Jan 25, 1:33 AM)
Low64 °F (Feb 6, 7:12 AM)48% (Jan 26, 12:53 PM)29.92 "Hg (Feb 6, 1:53 PM)
Average74 °F76%30.05 "Hg
* Reported Jan 22 1:53 PM — Feb 6 1:53 PM, Lihue, Weather by CustomWeather, © 2016

Note: Actual official high and low records may vary slightly from our data, if they occured in-between our weather recording intervals... More about our weather records

Advertising

Lihue Weather History for the Previous 24 Hours

 ConditionsComfort  
Time TempWeatherWind HumidityBarometerVisibility
1:53 PM
Sat, Feb 6
80 °FSunny.13 mph62%29.92 "Hg10 mi
12:53 PM80 °FSunny.10 mph60%29.96 "Hg10 mi
10:53 AM78 °FSunny.6 mph64%30.01 "Hg10 mi
9:53 AM77 °FSunny.5 mph66%30.01 "Hg10 mi
8:53 AM72 °FSunny.6 mph73%30.01 "Hg10 mi
7:53 AM67 °FSunny.8 mph85%30.00 "Hg10 mi
7:12 AM64 °FClear.8 mph88%29.99 "Hg10 mi
6:53 AM65 °FClear.9 mph87%29.96 "Hg10 mi
5:53 AM67 °FPassing clouds.6 mph85%29.96 "Hg10 mi
4:53 AM69 °FOvercast.5 mph81%29.96 "Hg10 mi
3:53 AM68 °FOvercast.8 mph82%29.98 "Hg10 mi
2:53 AM66 °FClear.6 mph87%29.98 "Hg10 mi
1:53 AM66 °FClear.3 mph87%29.98 "Hg10 mi
12:53 AM68 °FClear.8 mph84%29.99 "Hg10 mi
11:53 PM
Fri, Feb 5
69 °FClear.5 mph84%30.01 "HgN/A
10:53 PM70 °FClear.7 mph81%30.02 "HgN/A
9:53 PM71 °FPassing clouds.5 mph78%30.03 "Hg10 mi
8:53 PM71 °FPassing clouds.7 mph78%30.02 "Hg10 mi
7:53 PM74 °FClear.3 mph74%30.00 "Hg10 mi
6:53 PM75 °FClear.6 mph69%29.98 "Hg10 mi
5:53 PM77 °FSunny.9 mph64%29.97 "Hg10 mi
4:53 PM79 °FSunny.12 mph62%29.96 "Hg10 mi
Weather by CustomWeather, © 2016

See weather overviewHow to use our weather pages